Location: Tierra del Sol
(32.6128°N, 116.3319°W)
Time: 20:11:25
(UTC-08:00)

N. Korean satellite - Pass Details

Date: 13 October 2017
Orbit: 461 x 513 km, 97.2° (Epoch: 10 December)

Event Time Altitude Azimuth Distance (km) Brightness Sun altitude
Rises 19:55:39 0° 211° (SSW) 2,559 10.6 -22.1°
Reaches altitude 10° 19:58:58 10° 244° (WSW) 1,669 10.1 -22.8°
Maximum altitude 20:00:17 12° 266° (W) 1,563 10.2 -23.1°
Drops below altitude 10° 20:01:36 10° 288° (WNW) 1,662 10.3 -23.4°
Sets 20:04:54 0° 322° (NW) 2,533 10.8 -24.1°
